Time,TemperatureF,DewpointF,PressureIn,WindDirection,WindDirectionDegrees,WindSpeedMPH,WindSpeedGustMPH,Humidity,HourlyPrecipIn,Conditions,Clouds,dailyrainin,SolarRadiationWatts/m^2,SoftwareType,DateUTC
2018-05-21 00:04:00,63.3,55.9,30.04,WNW,300,0.0,-999.0,77,-99.99,,,0.00,0.0,meteohub,2018-05-21 04:04:00,
2018-05-21 00:09:00,63.5,55.8,30.04,NNW,333,0.0,-999.0,76,-99.99,,,0.00,0.0,meteohub,2018-05-21 04:09:00,
2018-05-21 00:14:00,63.7,55.9,30.04,NNW,334,0.0,-999.0,76,-99.99,,,0.00,0.0,meteohub,2018-05-21 04:14:00,
2018-05-21 00:19:00,63.3,55.6,30.04,NW,318,0.0,-999.0,76,-99.99,,,0.00,0.0,meteohub,2018-05-21 04:19:00,
2018-05-21 00:25:00,63.3,55.6,30.05,NE,45,0.0,-999.0,76,-99.99,,,0.00,0.0,meteohub,2018-05-21 04:25:00,
2018-05-21 00:30:00,63.1,55.4,30.05,NNW,340,0.0,-999.0,76,-99.99,,,0.00,0.0,meteohub,2018-05-21 04:30:00,
2018-05-21 00:35:00,63.0,55.2,30.05,North,355,0.0,-999.0,76,-99.99,,,0.00,0.0,meteohub,2018-05-21 04:35:00,
2018-05-21 00:40:00,62.8,55.4,30.06,NNW,345,0.0,-999.0,77,-99.99,,,0.00,0.0,meteohub,2018-05-21 04:40:00,
2018-05-21 00:45:00,62.6,55.2,30.05,NNW,341,0.0,-999.0,77,-99.99,,,0.00,0.0,meteohub,2018-05-21 04:45:00,
2018-05-21 00:50:00,62.4,55.0,30.06,NNW,336,0.0,-999.0,77,-99.99,,,0.00,0.0,meteohub,2018-05-21 04:50:00,
2018-05-21 00:56:00,62.2,54.9,30.06,NNE,21,0.0,-999.0,77,-99.99,,,0.00,0.0,meteohub,2018-05-21 04:56:00,
2018-05-21 01:01:00,62.2,54.9,30.06,NNW,336,0.0,-999.0,77,-99.99,,,0.00,0.0,meteohub,2018-05-21 05:01:00,
2018-05-21 01:06:00,62.1,55.0,30.06,NNW,342,0.0,-999.0,78,-99.99,,,0.00,0.0,meteohub,2018-05-21 05:06:00,
2018-05-21 01:11:00,62.1,55.0,30.06,North,355,0.0,-999.0,78,-99.99,,,0.00,0.0,meteohub,2018-05-21 05:11:00,
2018-05-21 01:16:00,61.9,54.9,30.06,NNE,19,0.0,-999.0,78,-99.99,,,0.00,0.0,meteohub,2018-05-21 05:16:00,
2018-05-21 01:21:00,61.7,54.9,30.06,North,0,0.0,-999.0,78,-99.99,,,0.00,0.0,meteohub,2018-05-21 05:21:00,
2018-05-21 01:27:00,61.9,54.9,30.06,NNW,346,0.0,-999.0,78,-99.99,,,0.00,0.0,meteohub,2018-05-21 05:27:00,
2018-05-21 01:32:00,61.7,54.9,30.06,NNE,21,0.0,-999.0,78,-99.99,,,0.00,0.0,meteohub,2018-05-21 05:32:00,
2018-05-21 01:37:00,61.5,54.7,30.06,NNW,340,0.0,-999.0,78,-99.99,,,0.00,0.0,meteohub,2018-05-21 05:37:00,
2018-05-21 01:42:00,61.3,54.5,30.06,NNW,338,0.0,-999.0,78,-99.99,,,0.00,0.0,meteohub,2018-05-21 05:42:00,
2018-05-21 01:47:00,61.2,54.7,30.06,NNW,336,0.0,-999.0,79,-99.99,,,0.00,0.0,meteohub,2018-05-21 05:47:00,
2018-05-21 01:52:00,60.8,54.3,30.06,NNW,344,0.0,-999.0,79,-99.99,,,0.00,0.0,meteohub,2018-05-21 05:52:00,
2018-05-21 01:57:00,60.6,54.5,30.06,NNW,342,0.0,-999.0,80,-99.99,,,0.00,0.0,meteohub,2018-05-21 05:57:00,
2018-05-21 02:02:00,60.4,54.3,30.06,North,0,0.0,-999.0,80,-99.99,,,0.00,0.0,meteohub,2018-05-21 06:02:00,
2018-05-21 02:07:00,60.4,54.3,30.06,NNE,25,0.0,-999.0,80,-99.99,,,0.00,0.0,meteohub,2018-05-21 06:07:00,
2018-05-21 02:12:00,60.4,54.3,30.06,North,355,0.0,-999.0,80,-99.99,,,0.00,0.0,meteohub,2018-05-21 06:12:00,
2018-05-21 02:17:00,60.4,54.3,30.06,North,350,0.0,-999.0,80,-99.99,,,0.00,0.0,meteohub,2018-05-21 06:17:00,
2018-05-21 02:22:00,60.4,54.3,30.06,NNW,332,0.0,-999.0,80,-99.99,,,0.00,0.0,meteohub,2018-05-21 06:22:00,
2018-05-21 02:27:00,60.3,54.1,30.06,NNE,31,0.0,-999.0,80,-99.99,,,0.00,0.0,meteohub,2018-05-21 06:27:00,
2018-05-21 02:32:00,60.1,54.3,30.07,NNW,344,0.0,-999.0,81,-99.99,,,0.00,0.0,meteohub,2018-05-21 06:32:00,
2018-05-21 02:37:00,60.1,54.3,30.07,NNW,344,0.0,-999.0,81,-99.99,,,0.00,0.0,meteohub,2018-05-21 06:37:00,
2018-05-21 02:42:00,59.7,54.1,30.07,NNW,344,0.0,-999.0,82,-99.99,,,0.00,0.0,meteohub,2018-05-21 06:42:00,
2018-05-21 02:47:00,59.4,54.1,30.07,NNW,344,0.0,-999.0,83,-99.99,,,0.00,0.0,meteohub,2018-05-21 06:47:00,
2018-05-21 02:52:00,58.8,54.0,30.07,NNW,344,0.0,-999.0,84,-99.99,,,0.00,0.0,meteohub,2018-05-21 06:52:00,
2018-05-21 02:57:00,58.5,53.6,30.08,NNW,338,0.0,-999.0,84,-99.99,,,0.00,0.0,meteohub,2018-05-21 06:57:00,
2018-05-21 03:02:00,58.3,53.8,30.08,NNW,338,0.0,-999.0,85,-99.99,,,0.00,0.0,meteohub,2018-05-21 07:02:00,
2018-05-21 03:07:00,58.3,53.4,30.08,NW,326,0.0,-999.0,84,-99.99,,,0.00,0.0,meteohub,2018-05-21 07:07:00,
2018-05-21 03:12:00,58.5,53.6,30.08,NW,326,0.0,-999.0,84,-99.99,,,0.00,0.0,meteohub,2018-05-21 07:12:00,
2018-05-21 03:17:00,58.5,53.2,30.08,NW,323,0.0,-999.0,83,-99.99,,,0.00,0.0,meteohub,2018-05-21 07:17:00,
2018-05-21 03:22:00,58.6,53.4,30.08,NW,320,0.0,-999.0,83,-99.99,,,0.00,0.0,meteohub,2018-05-21 07:22:00,
2018-05-21 03:27:00,58.6,53.2,30.08,NNW,331,0.0,-999.0,82,-99.99,,,0.00,0.0,meteohub,2018-05-21 07:27:00,
2018-05-21 03:32:00,58.6,53.2,30.09,WNW,297,0.0,-999.0,82,-99.99,,,0.00,0.0,meteohub,2018-05-21 07:32:00,
2018-05-21 03:37:00,58.8,53.1,30.09,North,355,0.0,-999.0,81,-99.99,,,0.00,0.0,meteohub,2018-05-21 07:37:00,
2018-05-21 03:43:00,58.6,52.9,30.09,NE,34,0.0,-999.0,81,-99.99,,,0.00,0.0,meteohub,2018-05-21 07:43:00,
2018-05-21 03:48:00,58.6,53.2,30.09,NNE,30,0.0,-999.0,82,-99.99,,,0.00,0.0,meteohub,2018-05-21 07:48:00,
2018-05-21 03:53:00,58.3,52.9,30.09,North,0,0.0,-999.0,82,-99.99,,,0.00,0.0,meteohub,2018-05-21 07:53:00,
2018-05-21 03:58:00,58.1,52.7,30.09,North,0,0.0,-999.0,82,-99.99,,,0.00,0.0,meteohub,2018-05-21 07:58:00,
2018-05-21 04:03:00,57.9,52.5,30.09,North,0,0.0,-999.0,82,-99.99,,,0.00,0.0,meteohub,2018-05-21 08:03:00,
2018-05-21 04:08:00,57.7,52.7,30.09,North,355,0.0,-999.0,83,-99.99,,,0.00,0.0,meteohub,2018-05-21 08:08:00,
2018-05-21 04:13:00,57.6,52.5,30.09,NNW,346,0.0,-999.0,83,-99.99,,,0.00,0.0,meteohub,2018-05-21 08:13:00,
2018-05-21 04:19:00,57.6,52.7,30.09,NNW,345,0.0,-999.0,84,-99.99,,,0.00,0.0,meteohub,2018-05-21 08:19:00,
2018-05-21 04:24:00,57.4,52.5,30.10,NNW,342,0.0,-999.0,84,-99.99,,,0.00,0.0,meteohub,2018-05-21 08:24:00,
2018-05-21 04:29:00,56.8,52.3,30.09,NNW,338,0.0,-999.0,85,-99.99,,,0.00,0.0,meteohub,2018-05-21 08:29:00,
2018-05-21 04:34:00,56.7,52.5,30.10,NNW,338,0.0,-999.0,86,-99.99,,,0.00,0.0,meteohub,2018-05-21 08:34:00,
2018-05-21 04:39:00,56.5,52.3,30.10,NNW,338,0.0,-999.0,86,-99.99,,,0.00,0.0,meteohub,2018-05-21 08:39:00,
2018-05-21 04:44:00,55.8,52.0,30.10,NNW,338,0.0,-999.0,87,-99.99,,,0.00,0.0,meteohub,2018-05-21 08:44:00,
2018-05-21 04:50:00,55.2,51.8,30.10,NNW,338,0.0,-999.0,88,-99.99,,,0.00,0.0,meteohub,2018-05-21 08:50:00,
2018-05-21 04:55:00,54.9,51.6,30.11,NNW,338,0.0,-999.0,89,-99.99,,,0.00,0.0,meteohub,2018-05-21 08:55:00,
2018-05-21 05:00:00,54.7,51.4,30.11,NNW,338,0.0,-999.0,89,-99.99,,,0.00,0.0,meteohub,2018-05-21 09:00:00,
2018-05-21 05:05:00,54.7,51.8,30.11,NNW,338,0.0,-999.0,90,-99.99,,,0.00,0.0,meteohub,2018-05-21 09:05:00,
2018-05-21 05:10:00,54.7,51.8,30.11,NNW,338,0.0,-999.0,90,-99.99,,,0.00,0.0,meteohub,2018-05-21 09:10:00,
2018-05-21 05:15:00,54.7,51.8,30.11,NNW,338,0.0,-999.0,90,-99.99,,,0.00,0.0,meteohub,2018-05-21 09:15:00,
2018-05-21 05:21:00,54.3,51.4,30.11,NNW,338,0.0,-999.0,90,-99.99,,,0.00,0.0,meteohub,2018-05-21 09:21:00,
2018-05-21 05:26:00,54.1,51.3,30.12,NNW,338,0.0,-999.0,90,-99.99,,,0.00,0.0,meteohub,2018-05-21 09:26:00,
2018-05-21 05:31:00,54.1,51.3,30.12,NNW,338,0.0,-999.0,90,-99.99,,,0.00,7.0,meteohub,2018-05-21 09:31:00,
2018-05-21 05:36:00,54.0,51.4,30.12,NNW,338,0.0,-999.0,91,-99.99,,,0.00,9.0,meteohub,2018-05-21 09:36:00,
2018-05-21 05:41:00,54.1,51.6,30.12,NNW,338,0.0,-999.0,91,-99.99,,,0.00,11.0,meteohub,2018-05-21 09:41:00,
2018-05-21 05:46:00,54.1,51.6,30.12,NNW,337,0.0,-999.0,91,-99.99,,,0.00,14.0,meteohub,2018-05-21 09:46:00,
2018-05-21 05:51:00,54.3,51.4,30.12,NNW,338,0.0,-999.0,90,-99.99,,,0.00,16.0,meteohub,2018-05-21 09:51:00,
2018-05-21 05:57:00,54.3,51.4,30.12,NNW,338,0.0,-999.0,90,-99.99,,,0.00,18.0,meteohub,2018-05-21 09:57:00,
2018-05-21 06:02:00,54.5,51.6,30.13,NNW,340,0.0,-999.0,90,-99.99,,,0.00,21.0,meteohub,2018-05-21 10:02:00,
2018-05-21 06:07:00,54.7,51.8,30.13,NNW,340,0.0,-999.0,90,-99.99,,,0.00,23.0,meteohub,2018-05-21 10:07:00,
2018-05-21 06:12:00,54.9,52.0,30.13,North,5,0.0,-999.0,90,-99.99,,,0.00,25.0,meteohub,2018-05-21 10:12:00,
2018-05-21 06:17:00,55.0,52.2,30.13,NNW,327,0.0,-999.0,90,-99.99,,,0.00,26.0,meteohub,2018-05-21 10:17:00,
2018-05-21 06:22:00,55.4,52.2,30.14,NNW,332,0.0,-999.0,89,-99.99,,,0.00,28.0,meteohub,2018-05-21 10:22:00,
2018-05-21 06:27:00,55.8,52.3,30.14,NNE,26,0.0,-999.0,88,-99.99,,,0.00,28.0,meteohub,2018-05-21 10:27:00,
2018-05-21 06:32:00,55.8,52.3,30.14,NNE,33,0.0,-999.0,88,-99.99,,,0.00,30.0,meteohub,2018-05-21 10:32:00,
2018-05-21 06:37:00,55.9,52.5,30.14,North,5,0.0,-999.0,88,-99.99,,,0.00,32.0,meteohub,2018-05-21 10:37:00,
2018-05-21 06:42:00,56.1,52.7,30.15,NNE,13,0.0,-999.0,88,-99.99,,,0.00,33.0,meteohub,2018-05-21 10:42:00,
2018-05-21 06:47:00,56.5,52.7,30.15,North,355,0.0,-999.0,87,-99.99,,,0.00,33.0,meteohub,2018-05-21 10:47:00,
2018-05-21 06:52:00,56.7,52.9,30.15,NNE,12,0.0,-999.0,87,-99.99,,,0.00,35.0,meteohub,2018-05-21 10:52:00,
2018-05-21 06:57:00,56.8,53.1,30.15,NNE,14,0.0,-999.0,87,-99.99,,,0.00,35.0,meteohub,2018-05-21 10:57:00,
2018-05-21 07:02:00,57.0,53.2,30.16,NW,321,0.0,-999.0,87,-99.99,,,0.00,37.0,meteohub,2018-05-21 11:02:00,
2018-05-21 07:07:00,57.4,53.2,30.16,NE,41,0.0,-999.0,86,-99.99,,,0.00,213.0,meteohub,2018-05-21 11:07:00,
2018-05-21 07:12:00,57.7,53.2,30.17,NNW,345,0.0,-999.0,85,-99.99,,,0.00,236.0,meteohub,2018-05-21 11:12:00,
2018-05-21 07:17:00,58.3,53.8,30.17,NNE,17,0.0,-999.0,85,-99.99,,,0.00,250.0,meteohub,2018-05-21 11:17:00,
2018-05-21 07:22:00,58.6,53.4,30.17,North,5,0.0,-999.0,83,-99.99,,,0.00,265.0,meteohub,2018-05-21 11:22:00,